DLH152 EDDL-EBBR

Flight info

Callsign DLH152
Flight time 0h 24m
Altitude 18000
Route MODRU7Z MODRU Z283 LNO
Aircraft A20N/M-SDE2E3FGHIRWXY/LB1

Departure

Time 2026-05-07 19:48
Airport Düsseldorf Airport (EDDL)

Arrival

Time 2026-05-07 20:12
Airport Brussels Airport (EBBR)
Time Latitude Longitude Altitude Speed Heading
2026-05-07 19:25 51.27991 6.76183 132 ft 0 kts 117°
2026-05-07 19:39 51.27999 6.76159 133 ft 3 kts 117°
2026-05-07 19:39 51.28007 6.76132 133 ft 3 kts 117°
2026-05-07 19:39 51.28016 6.76106 133 ft 3 kts 117°
2026-05-07 19:40 51.28017 6.76079 133 ft 3 kts 45°
2026-05-07 19:40 51.28004 6.76061 133 ft 1 kts 31°
2026-05-07 19:40 51.27993 6.76051 132 ft 0 kts
2026-05-07 19:42 51.27997 6.76050 132 ft 3 kts 358°
2026-05-07 19:42 51.28030 6.76049 132 ft 6 kts 360°
2026-05-07 19:42 51.28054 6.76049 132 ft 6 kts 360°
2026-05-07 19:42 51.28079 6.76045 132 ft 5 kts 348°
2026-05-07 19:43 51.28103 6.76001 129 ft 6 kts 275°
2026-05-07 19:43 51.28080 6.75918 127 ft 11 kts 233°
2026-05-07 19:43 51.28024 6.75802 128 ft 14 kts 233°
2026-05-07 19:43 51.27965 6.75676 125 ft 14 kts 233°
2026-05-07 19:44 51.27899 6.75538 124 ft 17 kts 232°
2026-05-07 19:44 51.27847 6.75422 123 ft 12 kts 246°
2026-05-07 19:44 51.27843 6.75390 125 ft 1 kts 263°
2026-05-07 19:44 51.27843 6.75371 124 ft 2 kts 279°
2026-05-07 19:45 51.27847 6.75357 124 ft 0 kts 295°
2026-05-07 19:45 51.27854 6.75342 124 ft 5 kts 313°
2026-05-07 19:45 51.27888 6.75313 122 ft 0 kts 334°
2026-05-07 19:46 51.27937 6.75275 119 ft 12 kts 337°
2026-05-07 19:46 51.28013 6.75310 116 ft 12 kts 50°
2026-05-07 19:47 51.28052 6.75392 118 ft 0 kts 53°
2026-05-07 19:47 51.28058 6.75404 120 ft 13 kts 53°
2026-05-07 19:47 51.28267 6.75845 125 ft 84 kts 53°
2026-05-07 19:47 51.28753 6.76862 136 ft 144 kts 52°
2026-05-07 19:48 51.29423 6.78242 418 ft 163 kts 52°
2026-05-07 19:48 51.30140 6.79687 1007 ft 168 kts 52°
2026-05-07 19:48 51.30841 6.81168 1647 ft 173 kts 54°
2026-05-07 19:48 51.31608 6.82829 1897 ft 197 kts 54°
2026-05-07 19:49 51.32448 6.84634 2276 ft 212 kts 53°
2026-05-07 19:49 51.33376 6.86660 2722 ft 241 kts 54°
2026-05-07 19:49 51.34439 6.88854 3533 ft 254 kts 46°
2026-05-07 19:49 51.35886 6.90480 4538 ft 257 kts 21°
2026-05-07 19:50 51.37621 6.91224 5559 ft 259 kts 10°
2026-05-07 19:50 51.39397 6.91702 6588 ft 260 kts
2026-05-07 19:50 51.41204 6.92149 7469 ft 266 kts
2026-05-07 19:50 51.43056 6.92616 8314 ft 273 kts
2026-05-07 19:51 51.44953 6.93105 9214 ft 279 kts
2026-05-07 19:51 51.46907 6.93386 10080 ft 285 kts 355°
2026-05-07 19:51 51.48845 6.92658 10581 ft 301 kts 333°
2026-05-07 19:51 51.50502 6.90454 10881 ft 323 kts 305°
2026-05-07 19:52 51.51555 6.87149 11328 ft 341 kts 291°
2026-05-07 19:52 51.52409 6.83533 12061 ft 349 kts 289°
2026-05-07 19:52 51.53254 6.79839 12935 ft 354 kts 289°
2026-05-07 19:52 51.54109 6.76146 13842 ft 358 kts 290°
2026-05-07 19:53 51.54959 6.72345 14633 ft 363 kts 286°
2026-05-07 19:53 51.55403 6.68325 15403 ft 367 kts 271°
2026-05-07 19:53 51.55108 6.64233 16196 ft 370 kts 254°
2026-05-07 19:53 51.54150 6.60423 16981 ft 374 kts 244°
2026-05-07 19:54 51.52958 6.56687 17749 ft 378 kts 242°
2026-05-07 19:54 51.51720 6.52929 18492 ft 382 kts 242°
2026-05-07 19:54 51.50473 6.49136 19149 ft 386 kts 242°
2026-05-07 19:54 51.49220 6.45305 19821 ft 389 kts 243°
2026-05-07 19:55 51.47957 6.41452 20489 ft 392 kts 242°
2026-05-07 19:55 51.46464 6.37773 20940 ft 395 kts 231°
2026-05-07 19:55 51.44488 6.34717 21076 ft 397 kts 217°
2026-05-07 19:55 51.42075 6.32559 21077 ft 399 kts 204°
2026-05-07 19:56 51.39479 6.30943 21070 ft 401 kts 201°
2026-05-07 19:56 51.36851 6.29429 21074 ft 401 kts 201°
2026-05-07 19:56 51.34221 6.27918 21076 ft 401 kts 201°
2026-05-07 19:56 51.31590 6.26395 21076 ft 401 kts 201°
2026-05-07 19:57 51.28970 6.24871 21075 ft 401 kts 201°
2026-05-07 19:57 51.26342 6.23338 21078 ft 401 kts 201°
2026-05-07 19:57 51.23720 6.21805 21075 ft 401 kts 201°
2026-05-07 19:57 51.21101 6.20238 21075 ft 401 kts 204°
2026-05-07 19:58 51.18646 6.18167 21084 ft 399 kts 215°
2026-05-07 19:58 51.16545 6.15312 21066 ft 397 kts 229°
2026-05-07 19:58 51.14931 6.11757 21080 ft 396 kts 239°
2026-05-07 19:58 51.13640 6.07940 21077 ft 396 kts 244°
2026-05-07 19:59 51.12509 6.03939 21078 ft 396 kts 247°
2026-05-07 19:59 51.11460 5.99888 20949 ft 395 kts 248°
2026-05-07 19:59 51.10431 5.95831 20698 ft 395 kts 248°
2026-05-07 19:59 51.09391 5.91778 20444 ft 398 kts 248°
2026-05-07 20:00 51.08301 5.87651 20182 ft 407 kts 247°
2026-05-07 20:00 51.07187 5.83554 19934 ft 409 kts 246°
2026-05-07 20:00 51.06060 5.79469 19686 ft 397 kts 246°
2026-05-07 20:00 51.04960 5.75504 19339 ft 388 kts 246°
2026-05-07 20:01 51.03877 5.71598 18872 ft 384 kts 246°
2026-05-07 20:01 51.02804 5.67729 18392 ft 380 kts 246°
2026-05-07 20:01 51.01743 5.63894 17860 ft 377 kts 246°
2026-05-07 20:01 51.00691 5.60094 17315 ft 373 kts 246°
2026-05-07 20:02 50.99650 5.56332 16766 ft 371 kts 246°
2026-05-07 20:02 50.98611 5.52582 16122 ft 371 kts 246°
2026-05-07 20:02 50.97767 5.48727 15485 ft 371 kts 258°
2026-05-07 20:02 50.97605 5.44694 14881 ft 371 kts 271°
2026-05-07 20:03 50.97733 5.40608 14265 ft 368 kts 276°
2026-05-07 20:03 50.97896 5.36625 13627 ft 355 kts 277°
2026-05-07 20:03 50.98082 5.32783 12978 ft 343 kts 278°
2026-05-07 20:03 50.98293 5.29071 12331 ft 333 kts 279°
2026-05-07 20:04 50.98514 5.25456 11690 ft 325 kts 281°
2026-05-07 20:04 50.98738 5.21935 11067 ft 317 kts 281°
2026-05-07 20:04 50.98959 5.18491 10458 ft 311 kts 282°
2026-05-07 20:04 50.99185 5.15064 9795 ft 313 kts 282°
2026-05-07 20:05 50.99410 5.11641 8993 ft 310 kts 281°
2026-05-07 20:05 50.99629 5.08241 8214 ft 308 kts 281°
2026-05-07 20:05 50.99845 5.04877 7456 ft 305 kts 281°
2026-05-07 20:05 51.00059 5.01534 6707 ft 303 kts 281°
2026-05-07 20:06 51.00212 4.98207 5927 ft 301 kts 276°
2026-05-07 20:06 51.00271 4.94930 5176 ft 299 kts 279°
2026-05-07 20:06 51.00395 4.91633 4455 ft 301 kts 276°
2026-05-07 20:06 51.00217 4.88340 4075 ft 296 kts 266°
2026-05-07 20:07 50.99911 4.85189 4015 ft 280 kts 272°
2026-05-07 20:07 50.99754 4.82190 3985 ft 264 kts 271°
2026-05-07 20:07 50.99472 4.79409 3986 ft 247 kts 266°
2026-05-07 20:07 50.98986 4.76895 3964 ft 230 kts 261°
2026-05-07 20:08 50.98396 4.74631 3772 ft 214 kts 258°
2026-05-07 20:08 50.97762 4.72571 3443 ft 204 kts 258°
2026-05-07 20:08 50.97102 4.70599 3013 ft 202 kts 258°
2026-05-07 20:08 50.96483 4.68620 2644 ft 198 kts 265°
2026-05-07 20:09 50.96052 4.66580 2362 ft 194 kts 273°
2026-05-07 20:09 50.95621 4.64634 2088 ft 182 kts 243°
2026-05-07 20:09 50.95068 4.62949 2021 ft 163 kts 241°
2026-05-07 20:10 50.93979 4.59967 1543 ft 153 kts 246°
2026-05-07 20:10 50.93618 4.58385 1193 ft 150 kts 249°
2026-05-07 20:10 50.93193 4.56903 942 ft 147 kts 243°
2026-05-07 20:10 50.92758 4.55441 736 ft 147 kts 245°
2026-05-07 20:11 50.92333 4.53979 527 ft 145 kts 245°
2026-05-07 20:11 50.91916 4.52534 383 ft 144 kts 246°
2026-05-07 20:11 50.91497 4.51103 244 ft 143 kts 244°
2026-05-07 20:11 50.91089 4.49706 134 ft 133 kts 246°
2026-05-07 20:12 50.90747 4.48522 137 ft 89 kts 244°
2026-05-07 20:12 50.90606 4.48032 145 ft 34 kts 246°
2026-05-07 20:12 50.90480 4.47721 144 ft 33 kts 221°
2026-05-07 20:12 50.90385 4.47599 141 ft 14 kts 216°
2026-05-07 20:13 50.90356 4.47565 142 ft 0 kts 216°
2026-05-07 20:14 50.90337 4.47574 142 ft 8 kts 150°
2026-05-07 20:14 50.90318 4.47657 140 ft 10 kts 77°
2026-05-07 20:14 50.90342 4.47745 141 ft 8 kts 65°
2026-05-07 20:14 50.90361 4.47815 142 ft 6 kts 65°
2026-05-07 20:15 50.90376 4.47863 143 ft 4 kts 65°
2026-05-07 20:15 50.90388 4.47905 143 ft 4 kts 65°
2026-05-07 20:15 50.90389 4.47907 143 ft 0 kts 65°
2026-05-07 20:15 50.90398 4.47941 143 ft 7 kts 70°
2026-05-07 20:16 50.90397 4.48015 143 ft 7 kts 116°
2026-05-07 20:16 50.90370 4.48080 143 ft 9 kts 101°
2026-05-07 20:16 50.90393 4.48193 143 ft 11 kts 65°
2026-05-07 20:16 50.90424 4.48302 142 ft 11 kts 66°
2026-05-07 20:17 50.90459 4.48426 140 ft 10 kts 66°
2026-05-07 20:17 50.90478 4.48529 139 ft 9 kts 111°
2026-05-07 20:17 50.90428 4.48582 139 ft 8 kts 155°
2026-05-07 20:17 50.90408 4.48598 139 ft 0 kts 154°